Home   Weather   Onex   Past weeks

Flag for Switzerland Past Weather in Onex, Geneva, Switzerland — Yesterday and Last 2 Weeks

48 °F

Broken clouds.

Feels Like: 48 °F
Forecast: 42 / 68 °F
Wind: 2 mph from North

Location: Geneva Cointrin Airport

Current Time: Oct 23, 2016 at 4:32:49 PM

Latest Report: Oct 23, 2016 at 3:50 PM

Visibility: N/A

Pressure: 29.86 "Hg

Humidity: 94%

Dew Point: 46 °F

Location of OnexLocation

Past Weather in Onex — Graph


Onex Temperature Yesterday

Maximum temperature yesterday: 55 °F (at 4:50 PM)
Minimum temperature yesterday: 32 °F (at 5:50 AM)
Average temperature yesterday: 42 °F

High & Low Weather Summary for the Past Weeks

High64 °F (Oct 15, 2:50 PM)100% (Oct 14, 12:20 AM)30.27 "Hg (Oct 14, 12:20 AM)
Low32 °F (Oct 22, 5:50 AM)51% (Oct 11, 2:20 PM)29.65 "Hg (Oct 14, 3:50 PM)
Average48 °F83%30.04 "Hg
* Reported Oct 8 3:20 PM — Oct 23 3:20 PM, Onex, Weather by CustomWeather, © 2016

Note: Actual official high and low records may vary slightly from our data, if they occured in-between our weather recording intervals... More about our weather records


Onex Weather History for the Previous 24 Hours

Scroll right to see more
Time TempWeatherWind HumidityBarometerVisibility
3:20 PM
Sun, Oct 23
48 °FBroken clouds.2 mph94%29.86 "Hg4 mi
2:50 PM48 °FLight rain. Partly sunny.2 mph94%29.86 "Hg3 mi
2:20 PM48 °FBroken clouds.1 mph94%29.89 "Hg5 mi
1:50 PM48 °FMore clouds than sun.3 mph87%29.86 "Hg4 mi
1:20 PM46 °FLight rain. Fog.1 mph93%29.89 "Hg3 mi
12:50 PM46 °FRain. Fog.2 mph93%29.89 "Hg3 mi
12:20 PM46 °FMore clouds than sun.2 mph93%29.89 "Hg5 mi
11:50 AM46 °FLight rain. More clouds than sun.2 mph93%29.89 "Hg4 mi
11:20 AM46 °FLow clouds.1 mph93%29.89 "Hg5 mi
10:50 AM45 °FLight rain. Fog.2 mph100%29.89 "Hg2 mi
10:20 AM45 °FRain. Fog.3 mph93%29.89 "Hg2 mi
9:50 AM45 °FLight rain. Mostly cloudy.2 mph93%29.89 "Hg3 mi
9:20 AM45 °FLight rain. Mostly cloudy.2 mph93%29.89 "Hg4 mi
8:50 AM45 °FLight rain. Mostly cloudy.2 mph93%29.89 "HgN/A
8:20 AM43 °FLight rain. Mostly cloudy.2 mph100%29.89 "HgN/A
7:50 AM43 °FPassing clouds.2 mph93%29.86 "HgN/A
7:20 AM41 °FPartly cloudy.2 mph100%29.86 "HgN/A
6:50 AM41 °FPartly cloudy.1 mph100%29.86 "HgN/A
6:20 AM41 °FPassing clouds.2 mph100%29.86 "HgN/A
5:50 AM43 °FPassing clouds.1 mph93%29.86 "HgN/A
5:20 AM43 °FPassing clouds.1 mph93%29.89 "HgN/A
4:50 AM43 °FPassing clouds.1 mph93%29.89 "HgN/A
4:20 AM43 °FPassing clouds.1 mph93%29.89 "HgN/A
3:50 AM41 °FPartly cloudy.2 mph100%29.89 "HgN/A
3:20 AM41 °FPassing clouds.1 mph93%29.92 "HgN/A
2:50 AM41 °FPartly cloudy.1 mph93%29.92 "HgN/A
2:20 AM41 °FPartly cloudy.No wind93%29.92 "HgN/A
1:50 AM41 °FMostly cloudy.1 mph93%29.92 "HgN/A
1:20 AM41 °FPassing clouds.1 mph93%29.92 "HgN/A
12:50 AM41 °FPartly cloudy.2 mph93%29.92 "HgN/A
12:20 AM41 °FPartly cloudy.1 mph93%29.92 "HgN/A
11:50 PM
Sat, Oct 22
41 °FPassing clouds.1 mph93%29.92 "HgN/A
11:20 PM41 °FPassing clouds.2 mph93%29.92 "HgN/A
10:50 PM39 °FPassing clouds.1 mph100%29.92 "HgN/A
10:20 PM39 °FPassing clouds.1 mph100%29.92 "HgN/A
9:50 PM41 °FPassing clouds.2 mph93%29.92 "HgN/A
9:20 PM41 °FClear.2 mph93%29.92 "Hg10 mi
8:50 PM43 °FClear.2 mph87%29.92 "Hg10 mi
8:20 PM43 °FClear.1 mph93%29.92 "Hg10 mi
7:50 PM45 °FClear.1 mph87%29.92 "Hg10 mi
7:20 PM46 °FClear.2 mph82%29.92 "Hg10 mi
6:50 PM46 °FClear.3 mph82%29.92 "Hg10 mi
6:20 PM52 °FPassing clouds.5 mph67%29.92 "HgN/A
5:50 PM54 °FSunny.5 mph63%29.92 "Hg10 mi
5:20 PM54 °FPassing clouds.2 mph58%29.92 "HgN/A
4:50 PM55 °FScattered clouds.2 mph55%29.92 "HgN/A
4:20 PM54 °FScattered clouds.5 mph58%29.92 "HgN/A
Weather by CustomWeather, © 2016

See weather overviewHow to use our weather pages